GW5028 Weather Reports


time (UTC)temp
F
wind
direction
speed
knots
gust
knots
rain 1hr
in
rain 24hr
in
rain mn
in
humidity
%
barometer
mb
20260510162643 78 259 3.5 3.5 0.00 0.00 0.00 36 1017.3
20260510162141 80 123 0.9 5.2 0.00 0.00 0.00 36 1017.4
20260510161636 80 247 1.7 5.2 0.00 0.00 0.00 36 1017.3
20260510161133 79 132 0.9 1.7 0.00 0.00 0.00 36 1017.3
20260510160630 79 105 1.7 3.5 0.00 0.00 0.00 35 1017.5
20260510160130 78 59 0.9 3.5 0.00 0.00 0.00 40 1017.5
20260510155627 78 281 5.2 8.7 0.00 0.00 0.00 42 1017.5
20260510155123 79 281 3.5 5.2 0.00 0.00 0.00 43 1017.4
20260510154618 78 156 1.7 6.1 0.00 0.00 0.00 45 1017.5
20260510154114 77 190 1.7 5.2 0.00 0.00 0.00 47 1017.5
20260510153610 77 138 0.9 1.7 0.00 0.00 0.00 44 1017.5
20260510153106 77 55 1.7 5.2 0.00 0.00 0.00 47 1017.6
20260510152603 77 279 6.1 7.8 0.00 0.00 0.00 47 1017.7
20260510152059 76 157 2.6 3.5 0.00 0.00 0.00 47 1017.8
20260510151556 77 173 0.9 1.7 0.00 0.00 0.00 49 1017.7
20260510151054 76 93 1.7 1.7 0.00 0.00 0.00 50 1017.6
20260510150554 76 140 0.9 3.5 0.00 0.00 0.00 48 1017.5
20260510150050 75 198 2.6 2.6 0.00 0.00 0.00 49 1017.6
20260510145547 75 102 2.6 3.5 0.00 0.00 0.00 48 1017.6
20260510145044 74 142 0.0 2.6 0.00 0.00 0.00 49 1017.7
20260510144540 74 180 0.0 3.5 0.00 0.00 0.00 49 1017.6
20260510144036 73 208 2.6 2.6 0.00 0.00 0.00 52 1017.9
20260510143531 73 155 1.7 3.5 0.00 0.00 0.00 51 1017.5
20260510143028 72 281 1.7 1.7 0.00 0.00 0.00 51 1017.5
20260510142525 72 140 0.9 1.7 0.00 0.00 0.00 56 1017.6
20260510142021 71 219 0.9 2.6 0.00 0.00 0.00 57 1017.6
20260510141517 71 169 0.9 2.6 0.00 0.00 0.00 58 1017.8
20260510141015 70 159 0.9 2.6 0.00 0.00 0.00 61 1017.7
20260510140511 70 269 3.5 5.2 0.00 0.00 0.00 61 1017.6
20260510140006 69 268 3.5 3.5 0.00 0.00 0.00 63 1017.6
20260510135501 68 150 0.0 0.9 0.00 0.00 0.00 64 1017.7
20260510134958 68 240 3.5 5.2 0.00 0.00 0.00 65 1017.9
20260510134456 68 245 1.7 2.6 0.00 0.00 0.00 67 1017.7
20260510133952 67 243 2.6 3.5 0.00 0.00 0.00 68 1017.7
20260510133448 67 159 0.0 1.7 0.00 0.00 0.00 67 1017.6
20260510132944 66 101 0.9 1.7 0.00 0.00 0.00 69 1017.6
20260510132442 66 327 0.0 1.7 0.00 0.00 0.00 72 1017.6
20260510131938 65 112 0.9 1.7 0.00 0.00 0.00 74 1017.5
20260510131436 64 158 0.0 1.7 0.00 0.00 0.00 75 1017.6
20260510130932 64 148 0.0 0.0 0.00 0.00 0.00 76 1017.7
20260510130429 63 142 0.0 0.0 0.00 0.00 0.00 80 1017.4
20260510125926 62 151 0.0 0.0 0.00 0.00 0.00 82 1017.5
20260510125422 61 146 0.0 0.0 0.00 0.00 0.00 87 1017.6
20260510124919 59 184 0.9 1.7 0.00 0.00 0.00 94 1017.7
20260510124416 58 158 0.0 0.9 0.00 0.00 0.00 99 1017.6
20260510123912 58 156 0.0 0.9 0.00 0.00 0.00 99 1017.6
20260510123408 57 160 0.0 0.9 0.00 0.00 0.00 99 1017.4
20260510122905 57 158 0.0 0.0 0.00 0.00 0.00 99 1017.3
20260510122359 56 145 0.0 0.9 0.00 0.00 0.00 99 1017.2
20260510121856 56 152 0.0 0.9 0.00 0.00 0.00 99 1017.3
20260510121354 56 194 1.7 1.7 0.00 0.00 0.00 99 1017.2
20260510120851 55 156 0.0 0.0 0.00 0.00 0.00 99 1017.0
20260510120348 55 164 0.9 1.7 0.00 0.00 0.00 99 1017.1
20260510115849 54 158 0.9 2.6 0.00 0.00 0.00 99 1017.1
20260510115346 54 152 0.0 0.0 0.00 0.00 0.00 99 1016.8
20260510114841 54 158 0.0 0.0 0.00 0.00 0.00 99 1016.4
20260510114339 54 157 0.0 0.0 0.00 0.00 0.00 99 1016.4
20260510113839 53 157 0.0 0.0 0.00 0.00 0.00 99 1016.2
20260510113336 53 157 0.0 0.0 0.00 0.00 0.00 99 1016.4
20260510112832 52 157 0.0 0.0 0.00 0.00 0.00 99 1016.1
20260510112329 51 156 0.0 0.0 0.00 0.00 0.00 99 1016.2
20260510111825 51 156 0.0 0.0 0.00 0.00 0.00 99 1016.1
20260510111322 51 158 0.0 0.0 0.00 0.00 0.00 99 1016.1
20260510110817 51 154 0.0 0.0 0.00 0.00 0.00 99 1016.1
20260510110315 51 153 0.0 0.0 0.00 0.00 0.00 99 1016.1
20260510105810 51 153 0.0 0.0 0.00 0.00 0.00 99 1015.7
20260510105309 50 156 0.0 0.0 0.00 0.00 0.00 99 1015.5
20260510104806 50 156 0.0 0.0 0.00 0.00 0.00 99 1015.7
20260510104304 50 157 0.0 0.0 0.00 0.00 0.00 99 1015.6
20260510103800 51 153 0.0 0.0 0.00 0.00 0.00 99 1015.4
20260510103258 50 154 0.0 0.0 0.00 0.00 0.00 99 1015.1
20260510102757 50 154 0.0 0.0 0.00 0.00 0.00 99 1015.3
20260510102254 50 156 0.0 0.0 0.00 0.00 0.00 99 1015.2
20260510101751 51 158 0.0 0.0 0.00 0.00 0.00 99 1015.1
20260510101250 51 157 0.0 0.0 0.00 0.00 0.00 99 1014.9
20260510100745 51 157 0.0 0.0 0.00 0.00 0.00 99 1015.1
20260510100243 51 153 0.0 0.0 0.00 0.00 0.00 99 1015.1
20260510095738 51 153 0.0 0.0 0.00 0.00 0.00 99 1014.9
20260510095234 52 152 0.0 0.0 0.00 0.00 0.00 99 1015.0
20260510094732 52 154 0.0 0.0 0.00 0.00 0.00 99 1014.7
20260510094228 52 156 0.0 0.0 0.00 0.00 0.00 99 1014.8
20260510093724 52 156 0.0 0.0 0.00 0.00 0.00 99 1014.8
20260510093222 51 157 0.0 0.0 0.00 0.00 0.00 99 1014.8
20260510092718 52 157 0.0 0.0 0.00 0.00 0.00 99 1014.6
20260510092214 52 157 0.0 0.0 0.00 0.00 0.00 99 1014.6
20260510091709 52 158 0.0 0.0 0.00 0.00 0.00 99 1014.7
20260510091206 52 153 0.0 0.0 0.00 0.00 0.00 99 1014.5
20260510090703 52 153 0.0 0.0 0.00 0.00 0.00 99 1014.6
20260510090200 52 158 0.0 0.0 0.00 0.00 0.00 99 1014.6
20260510085655 53 158 0.0 0.0 0.00 0.00 0.00 99 1014.4
20260510085150 53 158 0.0 0.0 0.00 0.00 0.00 99 1014.5
20260510084647 53 152 0.0 0.0 0.00 0.00 0.00 99 1014.3
20260510084143 53 154 0.0 0.0 0.00 0.00 0.00 99 1014.2
20260510083640 54 156 0.0 0.0 0.00 0.00 0.00 99 1014.5
20260510083137 54 157 0.0 0.0 0.00 0.00 0.00 99 1014.3
20260510082633 54 159 0.0 0.0 0.00 0.00 0.00 99 1014.6
20260510082129 54 160 0.0 0.0 0.00 0.00 0.00 99 1014.1
20260510081623 54 156 0.0 0.0 0.00 0.00 0.00 99 1014.2
20260510081119 55 154 0.0 0.0 0.00 0.00 0.00 99 1014.0
20260510080619 55 153 0.0 0.0 0.00 0.00 0.00 99 1014.1
20260510080116 55 152 0.0 0.0 0.00 0.00 0.00 99 1013.9
20260510075613 55 150 0.0 0.9 0.00 0.00 0.00 99 1014.1
20260510075110 55 156 0.0 0.0 0.00 0.00 0.00 99 1013.7
20260510074607 55 154 0.0 0.0 0.00 0.00 0.00 99 1013.9
20260510074103 55 153 0.0 0.0 0.00 0.00 0.00 99 1013.9
20260510073559 55 151 0.0 0.0 0.00 0.00 0.00 99 1013.6
20260510073056 55 154 0.0 0.0 0.00 0.00 0.00 99 1013.8
20260510072553 55 154 0.0 0.0 0.00 0.00 0.00 99 1013.9
20260510072048 55 154 0.0 0.0 0.00 0.00 0.00 99 1013.8
20260510071544 55 154 0.0 0.0 0.00 0.00 0.00 99 1013.7
20260510071043 55 154 0.0 0.0 0.00 0.00 0.00 99 1013.6
20260510070539 55 156 0.0 0.0 0.00 0.00 0.00 99 1013.7
20260510070036 56 152 0.0 0.0 0.00 0.00 0.00 99 1013.7
20260510065533 56 151 0.0 0.0 0.00 0.00 0.00 99 1013.7
20260510065029 56 151 0.0 0.0 0.00 0.00 0.00 99 1013.6
20260510064525 56 152 0.0 0.0 0.00 0.00 0.00 99 1013.7
20260510064022 56 146 0.0 0.0 0.00 0.00 0.00 99 1013.9
20260510063519 57 155 0.0 0.9 0.00 0.00 0.00 99 1013.8
20260510063017 57 156 0.0 0.0 0.00 0.00 0.00 99 1013.7
20260510062512 56 153 0.0 0.0 0.00 0.00 0.00 99 1013.7
20260510062007 57 147 0.0 0.0 0.00 0.00 0.00 99 1013.6
20260510061504 56 153 0.0 0.0 0.00 0.00 0.00 99 1014.0
20260510061001 57 153 0.0 0.0 0.00 0.00 0.00 99 1014.0
20260510060457 57 152 0.0 0.0 0.00 0.00 0.00 99 1014.0
20260510055953 57 149 0.0 0.0 0.00 0.00 0.00 99 1014.0
20260510055449 57 146 0.0 0.0 0.00 0.00 0.00 99 1013.8
20260510054948 57 156 0.0 0.0 0.00 0.00 0.00 99 1013.9
20260510054442 57 160 0.0 0.0 0.00 0.00 0.00 99 1013.9
20260510053938 57 157 0.0 0.0 0.00 0.00 0.00 99 1013.8
20260510053434 58 151 0.0 0.0 0.00 0.00 0.00 99 1013.7
20260510052930 58 131 0.9 0.9 0.00 0.00 0.00 99 1013.7
20260510052426 58 145 0.0 0.9 0.00 0.00 0.00 99 1013.9
20260510051922 58 155 0.9 0.9 0.00 0.00 0.00 99 1014.2
20260510051419 58 158 0.0 0.0 0.00 0.00 0.00 99 1013.9
20260510050915 58 153 0.0 0.0 0.00 0.00 0.00 98 1014.1
20260510050412 58 152 0.0 0.0 0.00 0.00 0.00 98 1014.1
20260510045909 58 153 0.0 0.9 0.00 0.00 0.00 98 1014.2
20260510045406 59 152 0.0 0.0 0.00 0.00 0.00 98 1014.3
20260510044903 59 150 0.0 0.0 0.00 0.00 0.00 98 1014.0
20260510044400 59 149 0.0 0.0 0.00 0.00 0.00 98 1014.1
20260510043856 59 149 0.0 0.0 0.00 0.00 0.00 97 1014.1
20260510043352 59 151 0.0 0.0 0.00 0.00 0.00 97 1014.1
20260510042851 58 156 0.0 0.0 0.00 0.00 0.00 97 1014.1
20260510042346 59 155 0.0 0.0 0.00 0.00 0.00 97 1014.1
20260510041842 59 154 0.0 0.0 0.00 0.00 0.00 97 1014.1
20260510041340 59 153 0.0 0.0 0.00 0.00 0.00 96 1013.9
20260510040837 59 152 0.0 0.0 0.00 0.00 0.00 96 1014.1
20260510040334 60 153 0.0 0.0 0.00 0.00 0.00 96 1014.2
20260510035829 60 153 0.0 0.0 0.00 0.00 0.00 95 1014.0
20260510035325 60 153 0.0 0.0 0.00 0.00 0.00 95 1013.9
20260510034821 60 152 0.0 0.0 0.00 0.00 0.00 94 1013.9
20260510034319 60 153 0.0 0.0 0.00 0.00 0.00 94 1014.1
20260510033815 60 153 0.0 0.0 0.00 0.00 0.00 93 1013.9
20260510033313 61 152 0.0 0.0 0.00 0.00 0.00 93 1014.0
20260510032809 61 152 0.0 0.0 0.00 0.00 0.00 93 1014.0
20260510032306 61 152 0.0 0.0 0.00 0.00 0.00 92 1014.0
20260510031801 62 152 0.0 0.0 0.00 0.00 0.00 91 1013.9
20260510031258 62 153 0.0 0.0 0.00 0.00 0.00 90 1014.0
20260510030756 62 153 0.0 0.0 0.00 0.00 0.00 90 1014.2
20260510030254 62 154 0.0 0.0 0.00 0.00 0.00 90 1014.1
20260510025751 62 155 0.0 0.0 0.00 0.00 0.00 90 1014.0
20260510025249 62 153 0.0 0.0 0.00 0.00 0.00 89 1013.9
20260510024745 63 156 0.0 0.0 0.00 0.00 0.00 88 1014.1
20260510024242 63 152 0.0 0.0 0.00 0.00 0.00 87 1014.0
20260510023738 64 152 0.0 0.0 0.00 0.00 0.00 87 1014.1
20260510023236 64 152 0.0 0.0 0.00 0.00 0.00 85 1013.8
20260510022732 64 154 0.0 0.0 0.00 0.00 0.00 85 1013.6
20260510022231 64 151 0.0 0.0 0.00 0.00 0.00 85 1013.7
20260510021726 64 152 0.0 0.0 0.00 0.00 0.00 85 1013.5
20260510021224 64 156 0.0 0.0 0.00 0.00 0.00 85 1013.5
20260510020719 65 156 0.0 0.0 0.00 0.00 0.00 83 1013.6
20260510020219 66 154 0.0 0.0 0.00 0.00 0.00 82 1013.5
20260510015715 66 152 0.0 0.9 0.00 0.00 0.00 81 1013.4
20260510015212 66 154 0.0 0.9 0.00 0.00 0.00 81 1013.4
20260510014707 66 156 0.0 0.0 0.00 0.00 0.00 80 1013.3
20260510014206 67 158 0.0 0.9 0.00 0.00 0.00 79 1013.4
20260510013706 67 160 0.0 0.9 0.00 0.00 0.00 79 1013.3
20260510013202 67 157 0.0 0.9 0.00 0.00 0.00 79 1013.2
20260510012701 67 155 0.0 1.7 0.00 0.00 0.00 78 1012.8
20260510012157 67 158 0.0 0.0 0.00 0.00 0.00 78 1013.0
20260510011652 67 159 0.0 1.7 0.00 0.00 0.00 78 1012.9
20260510011148 68 183 0.9 1.7 0.00 0.00 0.00 78 1012.7
20260510010644 68 159 0.9 1.7 0.00 0.00 0.00 77 1012.5
20260510010141 68 185 0.9 0.9 0.00 0.00 0.00 77 1012.4
20260510005637 68 163 0.9 1.7 0.00 0.00 0.00 76 1012.4
20260510005134 68 158 1.7 1.7 0.00 0.00 0.00 76 1012.2
20260510004633 68 154 0.9 0.9 0.00 0.00 0.00 76 1012.3
20260510004131 68 153 0.0 1.7 0.00 0.00 0.00 76 1011.9
20260510003627 69 163 0.9 0.9 0.00 0.00 0.00 74 1012.1
20260510003123 69 163 0.0 0.0 0.00 0.00 0.00 74 1011.9
20260510002623 69 159 0.0 0.0 0.00 0.00 0.00 74 1011.9
20260510002121 69 163 0.0 1.7 0.00 0.00 0.00 73 1011.7
20260510001617 69 156 0.0 0.9 0.00 0.00 0.00 73 1011.7
20260510001116 70 163 0.9 1.7 0.00 0.00 0.00 73 1011.9
20260510000616 70 163 0.9 0.9 0.00 0.00 0.00 72 1011.6
20260510000114 70 156 0.0 1.7 0.00 0.00 0.00 72 1011.6
20260509235610 70 160 0.9 5.2 0.00 0.00 0.00 71 1011.8
20260509235107 71 153 1.7 2.6 0.00 0.00 0.00 70 1011.7
20260509234603 71 163 0.9 1.7 0.00 0.00 0.00 70 1011.7
20260509234101 71 165 1.7 5.2 0.00 0.00 0.00 69 1011.8
20260509233558 71 166 0.0 3.5 0.00 0.00 0.00 69 1011.6
20260509233055 71 157 0.0 1.7 0.00 0.00 0.00 68 1011.4
20260509232552 72 287 1.7 3.5 0.00 0.00 0.00 67 1011.2
20260509232049 72 162 0.0 0.9 0.00 0.00 0.00 67 1011.2
20260509231545 72 164 1.7 2.6 0.00 0.00 0.00 66 1011.2
20260509231043 72 181 1.7 2.6 0.00 0.00 0.00 65 1011.3
20260509230539 73 155 0.9 1.7 0.00 0.00 0.00 66 1011.2
20260509230037 73 153 0.0 0.9 0.00 0.00 0.00 65 1011.3
20260509225532 73 161 0.9 1.7 0.00 0.00 0.00 64 1011.1
20260509225027 73 147 0.9 1.7 0.00 0.00 0.00 64 1010.9
20260509224523 73 180 0.9 1.7 0.00 0.00 0.00 65 1010.9
20260509224020 73 203 1.7 2.6 0.00 0.00 0.00 63 1010.7
20260509223517 73 214 3.5 5.2 0.00 0.00 0.00 62 1010.8
20260509223015 74 269 2.6 3.5 0.00 0.00 0.00 62 1010.7
20260509222511 75 175 1.7 3.5 0.00 0.00 0.00 61 1010.7
20260509222006 74 169 1.7 2.6 0.00 0.00 0.00 61 1010.7
20260509221502 74 199 0.9 3.5 0.00 0.00 0.00 63 1010.9
20260509220958 74 154 2.6 5.2 0.00 0.00 0.00 61 1010.7
20260509220455 76 173 0.9 2.6 0.00 0.00 0.00 58 1010.7
20260509215950 76 118 2.6 3.5 0.00 0.00 0.00 59 1010.6
20260509215446 75 182 3.5 5.2 0.00 0.00 0.00 59 1010.7
20260509214944 75 200 3.5 5.2 0.00 0.00 0.00 59 1010.6
20260509214441 77 161 4.3 7.0 0.00 0.00 0.00 57 1010.5
20260509213937 76 159 2.6 3.5 0.00 0.00 0.00 57 1010.4
20260509213433 75 198 2.6 6.1 0.00 0.00 0.00 58 1010.7
20260509212931 75 189 2.6 5.2 0.00 0.00 0.00 58 1010.6
20260509212429 75 148 3.5 5.2 0.00 0.00 0.00 59 1010.6
20260509211925 75 201 3.5 3.5 0.00 0.00 0.00 58 1010.7
20260509211420 74 193 3.5 3.5 0.00 0.00 0.00 59 1010.4
20260509210917 74 178 1.7 2.6 0.00 0.00 0.00 60 1010.6
20260509210414 74 169 1.7 5.2 0.00 0.00 0.00 60 1010.6
20260509205910 75 155 5.2 7.8 0.00 0.00 0.00 59 1010.5
20260509205409 75 162 1.7 5.2 0.00 0.00 0.00 60 1010.4
20260509204906 75 153 3.5 5.2 0.00 0.00 0.00 59 1010.2
20260509204402 75 129 3.5 6.1 0.00 0.00 0.00 60 1010.1
20260509203859 75 157 1.7 9.6 0.00 0.00 0.00 61 1010.2
20260509203355 75 161 0.9 2.6 0.00 0.00 0.00 61 1010.3
20260509202853 75 161 2.6 5.2 0.00 0.00 0.00 60 1010.3
20260509202348 75 160 3.5 7.0 0.00 0.00 0.00 60 1010.4
20260509201843 76 252 3.5 7.0 0.00 0.00 0.00 56 1010.5
20260509201339 75 168 6.1 7.0 0.00 0.00 0.00 60 1010.4
20260509200836 75 173 2.6 3.5 0.00 0.00 0.00 61 1010.4
20260509200331 75 148 2.6 6.1 0.00 0.00 0.00 61 1010.6
20260509195828 75 297 4.3 6.1 0.00 0.00 0.00 60 1010.6
20260509195328 76 133 3.5 7.0 0.00 0.00 0.00 60 1010.4
20260509194828 75 271 4.3 7.0 0.00 0.00 0.00 62 1010.6
20260509194324 75 199 2.6 7.0 0.00 0.00 0.00 60 1010.7
20260509193821 74 183 2.6 5.2 0.00 0.00 0.00 60 1010.8
20260509193320 74 152 0.9 6.1 0.00 0.00 0.00 61 1011.0
20260509192817 74 224 3.5 11.3 0.00 0.00 0.00 60 1010.9
20260509192313 74 195 2.6 5.2 0.00 0.00 0.00 60 1011.1
20260509191808 72 142 1.7 5.2 0.00 0.00 0.00 62 1011.0
20260509191305 72 175 3.5 5.2 0.00 0.00 0.00 63 1011.1
20260509190800 73 282 1.7 5.2 0.00 0.00 0.00 63 1011.0
20260509190258 74 164 5.2 7.0 0.00 0.00 0.00 61 1010.8
20260509185755 74 198 1.7 5.2 0.00 0.00 0.00 65 1010.9
20260509185251 73 175 2.6 7.8 0.00 0.00 0.00 61 1010.9
20260509184749 72 179 1.7 7.0 0.00 0.00 0.00 63 1010.9
20260509184246 74 124 4.3 6.1 0.00 0.00 0.00 62 1010.9
20260509183742 74 225 3.5 6.1 0.00 0.00 0.00 62 1011.0
20260509183237 72 193 4.3 5.2 0.00 0.00 0.00 62 1010.9
20260509182733 73 193 3.5 9.6 0.00 0.00 0.00 60 1011.2
20260509182231 72 261 3.5 7.0 0.00 0.00 0.00 60 1011.3
20260509181729 74 41 5.2 7.8 0.00 0.00 0.00 59 1011.4
20260509181226 73 218 4.3 6.1 0.00 0.00 0.00 60 1011.5
20260509180723 73 153 1.7 7.8 0.00 0.00 0.00 61 1011.5
20260509180219 73 275 7.0 9.6 0.00 0.00 0.00 60 1011.5
20260509175715 73 202 1.7 3.5 0.00 0.00 0.00 61 1011.6
20260509175212 73 179 5.2 7.0 0.00 0.00 0.00 58 1011.8
20260509174707 72 174 1.7 6.1 0.00 0.00 0.00 64 1011.6
20260509174203 71 165 1.7 3.5 0.00 0.00 0.00 63 1011.9
20260509173659 71 270 3.5 7.8 0.00 0.00 0.00 62 1011.7
20260509173155 73 253 2.6 6.1 0.00 0.00 0.00 62 1011.8
20260509172651 71 193 1.7 2.6 0.00 0.00 0.00 63 1011.7
20260509172148 72 292 1.7 3.5 0.00 0.00 0.00 61 1011.9
20260509171643 70 240 5.2 7.8 0.00 0.00 0.00 64 1011.9
20260509171140 72 292 7.0 8.7 0.00 0.00 0.00 60 1012.1
20260509170637 71 174 4.3 7.0 0.00 0.00 0.00 64 1011.8
20260509170133 70 108 3.5 6.1 0.00 0.00 0.00 65 1012.1
20260509165631 69 174 1.7 6.1 0.00 0.00 0.00 68 1012.2
20260509165127 69 104 0.9 5.2 0.00 0.00 0.00 68 1012.4
20260509164623 71 281 4.3 5.2 0.00 0.00 0.00 65 1012.4
20260509164119 69 192 1.7 3.5 0.00 0.00 0.00 67 1012.4
20260509163617 69 273 2.6 9.6 0.00 0.00 0.00 69 1012.7
20260509163112 69 153 3.5 6.1 0.00 0.00 0.00 68 1012.8